Location: B?ogocice
(50.2413°N, 20.2361°E)
Time: 04:04:25
(UTC+00:00)

ALOS - Pass Details

Date: 19 September 2024
Orbit: 670 x 673 km, 98.0° (Epoch: 04 October)

Event Time Altitude Azimuth Distance (km) Brightness Sun altitude
Rises 01:59:42 0° 10° (N) 3,032 6.2 -22.2°
Reaches altitude 10° 02:01:59 10° 6° (N) 2,113 5.3 -21.9°
Maximum altitude 02:06:28 54° 290° (WNW) 821 2.4 -21.3°
Enters shadow 02:06:55 51° 267° (W) 843 2.3 -21.2°
